Location: Abundant Grace Fellowship
(35.0349°N, 90.0924°W)
Time: 17:14:54
(UTC+00:00)

Cosmos 1707 Rocket - Visible Passes

Search period start: 11 April 2026 00:00
Search period end: 21 April 2026 00:00
Orbit: 598 x 624 km, 82.5° (Epoch: 11 April)

Date Brightness Start Highest point End Pass type
(mag) Time Alt. Az. Time Alt. Az. Time Alt. Az.
11 Apr 4.7 00:46:04 10° NNE 00:49:28 22° ENE 00:52:50 10° SE visible
11 Apr 5.8 02:23:38 10° NW 02:27:01 23° W 02:30:23 10° SW visible
12 Apr 3.9 01:00:17 10° N 01:04:20 40° E 01:08:22 10° SSE visible
12 Apr 6.5 02:39:45 10° WNW 02:41:35 13° W 02:43:23 10° WSW visible
13 Apr 3.4 01:14:50 10° N 01:19:08 79° E 01:23:24 10° S visible
14 Apr 4.3 01:29:40 10° NNW 01:33:52 53° W 01:38:01 10° S visible
15 Apr 5.6 01:44:50 10° NNW 01:48:30 28° W 01:52:10 10° SSW visible
16 Apr 6.5 02:00:32 10° NW 02:03:05 16° W 02:05:39 10° SW visible
19 Apr 5.3 01:06:04 10° NNW 01:09:58 35° W 01:13:52 10° SSW visible
20 Apr 6.4 01:21:31 10° NW 01:24:34 19° W 01:27:38 10° SW visible
